N7DTY Weather Reports


time (UTC)temp
F
wind
direction
speed
knots
gust
knots
rain 1hr
in
rain 24hr
in
rain mn
in
humidity
%
barometer
mb
20260509200023 66 196 1.7 7.0 0.00 0.00 0.00 59 1020.1
20260509194522 65 235 1.7 5.2 0.00 0.00 0.00 61 1020.4
20260509193018 67 12 0.9 2.6 0.00 0.00 0.00 61 1020.7
20260509191519 66 194 0.9 4.3 0.00 0.00 0.00 55 1020.8
20260509190017 66 40 2.6 5.2 0.00 0.00 0.00 51 1021.0
20260509184517 66 49 1.7 7.8 0.00 0.00 0.00 54 1021.0
20260509183012 66 67 0.0 4.3 0.00 0.00 0.00 57 1021.0
20260509181510 65 344 2.6 7.0 0.00 0.00 0.00 56 1021.4
20260509180006 64 43 1.7 4.3 0.00 0.00 0.00 60 1021.2
20260509174505 63 79 1.7 10.4 0.00 0.00 0.00 60 1021.2
20260509173120 62 15 4.3 8.7 0.00 0.00 0.00 61 1021.3
20260509171559 61 355 3.5 7.8 0.00 0.00 0.00 65 1021.4
20260509170107 61 360 1.7 5.2 0.00 0.00 0.00 65 1021.5
20260509164652 60 11 3.5 7.0 0.00 0.00 0.00 68 1021.5
20260509163050 60 13 1.7 7.8 0.00 0.00 0.00 68 1021.9
20260509161544 59 22 3.5 7.8 0.00 0.00 0.00 71 1022.1
20260509160043 58 350 2.6 7.8 0.00 0.00 0.00 73 1022.2
20260509154535 57 350 1.7 4.3 0.00 0.00 0.00 74 1022.3
20260509153034 56 323 0.9 4.3 0.00 0.00 0.00 76 1022.2
20260509151527 55 338 2.6 7.0 0.00 0.00 0.00 75 1022.4
20260509150024 54 345 0.9 3.5 0.00 0.00 0.00 79 1022.5
20260509144521 53 340 1.7 3.5 0.00 0.00 0.00 80 1022.5
20260509143020 53 355 1.7 3.5 0.00 0.00 0.00 80 1022.6
20260509141518 53 22 0.9 1.7 0.00 0.00 0.00 82 1022.7
20260509140015 52 128 0.9 2.6 0.00 0.00 0.00 83 1022.8
20260509134512 52 136 0.9 1.7 0.00 0.00 0.00 86 1022.8
20260509133010 51 136 0.0 0.9 0.00 0.00 0.00 86 1022.8
20260509131507 51 136 0.9 1.7 0.00 0.00 0.00 86 1022.7
20260509130018 51 136 0.0 0.0 0.00 0.00 0.00 86 1022.7
20260509124515 51 136 0.0 0.9 0.00 0.00 0.00 86 1022.7
20260509123004 51 136 0.0 0.9 0.00 0.00 0.00 85 1022.6
20260509121503 52 136 0.0 1.7 0.00 0.00 0.00 84 1022.7
20260509120007 52 136 0.0 1.7 0.00 0.00 0.00 84 1022.7
20260509114503 52 136 0.0 0.0 0.00 0.00 0.00 84 1022.7
20260509113004 52 136 0.0 0.9 0.00 0.00 0.00 84 1022.7
20260509111600 52 136 0.0 0.0 0.00 0.00 0.00 84 1022.7
20260509111501 52 136 0.0 0.0 0.00 0.00 0.00 83 1022.7
20260509110000 52 136 0.0 0.0 0.00 0.00 0.00 83 1022.6
20260509104600 52 136 0.0 1.7 0.00 0.00 0.00 83 1022.6
20260509103109 52 136 0.9 1.7 0.00 0.00 0.00 83 1022.7
20260509101604 52 136 0.0 0.9 0.00 0.00 0.00 83 1022.6
20260509100100 52 136 0.0 0.0 0.00 0.00 0.00 83 1022.6
20260509094602 51 136 0.0 0.0 0.00 0.00 0.00 83 1022.5
20260509093058 51 136 0.0 0.0 0.00 0.00 0.00 84 1022.4
20260509091556 50 136 0.0 0.0 0.00 0.00 0.00 85 1022.5
20260509084605 49 136 0.0 0.0 0.00 0.00 0.00 87 1022.6
20260509083054 49 136 0.0 0.0 0.00 0.00 0.00 86 1022.7
20260509081557 49 136 0.0 0.0 0.00 0.00 0.00 86 1022.7
20260509080057 49 136 0.0 0.0 0.00 0.00 0.00 84 1022.7
20260509074548 50 136 0.0 0.0 0.00 0.00 0.00 83 1022.6
20260509073047 51 136 0.0 0.9 0.00 0.00 0.00 82 1022.6
20260509071543 52 136 0.0 0.0 0.00 0.00 0.00 80 1022.5
20260509070037 53 136 0.0 0.9 0.00 0.00 0.00 79 1022.6
20260509064551 53 136 0.0 2.6 0.00 0.00 0.00 79 1022.5
20260509063038 53 134 0.0 2.6 0.00 0.00 0.00 79 1022.6
20260509061545 53 188 0.0 1.7 0.00 0.00 0.00 79 1022.6
20260509060038 53 188 0.0 0.9 0.00 0.00 0.00 78 1022.6
20260509054538 53 188 0.0 1.7 0.00 0.00 0.00 77 1022.5
20260509053036 53 169 0.0 2.6 0.00 0.00 0.00 77 1022.6
20260509051534 54 154 0.0 2.6 0.00 0.00 0.00 77 1022.5
20260509050035 54 189 0.9 2.6 0.00 0.00 0.00 76 1022.5
20260509044532 54 140 0.9 4.3 0.00 0.00 0.00 75 1022.5
20260509043032 54 185 0.9 4.3 0.00 0.00 0.00 76 1022.4
20260509041530 54 175 0.0 3.5 0.00 0.00 0.00 76 1022.2
20260509040037 54 165 0.9 4.3 0.00 0.00 0.00 76 1022.2
20260509034529 54 167 0.9 2.6 0.00 0.00 0.00 76 1022.0
20260509033027 54 145 0.9 4.3 0.00 0.00 0.00 77 1021.8
20260509031528 54 178 0.9 3.5 0.00 0.00 0.00 76 1021.7
20260509030024 54 171 0.0 2.6 0.00 0.00 0.00 75 1021.8
20260509024525 55 155 0.9 4.3 0.00 0.00 0.00 75 1021.6
20260509023025 55 117 0.9 3.5 0.00 0.00 0.00 74 1021.6
20260509021522 56 161 1.7 4.3 0.00 0.00 0.00 72 1021.6
20260509020022 56 182 0.9 3.5 0.00 0.00 0.00 72 1021.7
20260509014534 56 163 0.9 5.2 0.00 0.00 0.00 71 1021.7
20260509013023 56 165 0.9 7.8 0.00 0.00 0.00 70 1021.6
20260509011520 56 164 0.9 6.1 0.00 0.00 0.00 71 1021.6
20260509010019 56 188 2.6 7.0 0.00 0.00 0.00 69 1021.5
20260509004519 56 193 2.6 6.1 0.00 0.00 0.00 70 1021.5
20260509003019 56 178 1.7 7.8 0.00 0.00 0.00 69 1021.5
20260509001520 57 181 2.6 7.8 0.00 0.00 0.00 68 1021.5
20260509000017 56 207 2.6 6.1 0.00 0.00 0.00 70 1021.5
20260508234517 57 163 3.5 8.7 0.00 0.00 0.00 69 1021.4
20260508233016 57 199 2.6 7.8 0.00 0.00 0.00 70 1021.4
20260508231515 57 172 1.7 7.0 0.00 0.00 0.00 69 1021.4
20260508230014 57 190 2.6 7.8 0.00 0.00 0.00 68 1021.4
20260508224513 57 59 2.6 7.0 0.00 0.00 0.00 69 1021.3
20260508223013 57 209 3.5 12.2 0.00 0.00 0.00 70 1021.3
20260508221511 58 197 3.5 8.7 0.00 0.00 0.00 68 1021.3
20260508220032 57 179 3.5 7.8 0.00 0.00 0.00 69 1021.2
20260508214510 56 192 3.5 8.7 0.00 0.00 0.00 70 1021.2
20260508213010 57 181 3.5 8.7 0.00 0.00 0.00 70 1021.1
20260508211508 56 174 3.5 7.0 0.00 0.00 0.00 68 1021.0
20260508210006 57 183 3.5 9.6 0.00 0.00 0.00 67 1020.8
20260508204505 57 172 2.6 8.7 0.00 0.00 0.00 68 1020.7
20260508203003 57 175 4.3 10.4 0.00 0.00 0.00 70 1020.6